Weather History for KLNK - December, 2011

Change the Weather History Date:

Saturday, December 10, 2011

  Actual Average Record
Temperature  
Mean Temperature 17 °F 28 °F  
Max Temperature 32 °F 38 °F 71 °F (1890)
Min Temperature 2 °F 17 °F -20 °F (1919)
Degree Days  
Heating Degree Days 48 37  
Month to date heating degree days 459 357  
Since 1 July heating degree days 1683 1618  
Cooling Degree Days 0 0  
Month to date cooling degree days 0 0  
Year to date cooling degree days 1296 1173  
Moisture  
Dew Point 12 °F    
Average Humidity 86    
Maximum Humidity 100    
Minimum Humidity 72    
Precipitation  
Precipitation 0.00 in 0.04 in 0.66 in (1911)
Month to date precipitation 0.88 0.36  
Year to date precipitation 28.47 28.36  
Snow  
Snow 0.00 in 0.20 in - ()
Month to date snowfall 4.6 1.8  
Since 1 July snowfall 4.6 4.6  
Snow Depth 2.00 in    
Sea Level Pressure  
Sea Level Pressure 30.44 in    
Wind  
Wind Speed 4 mph (SSW)    
Max Wind Speed 12 mph    
Max Gust Speed 14 mph    
Visibility 5 miles    
Events Fog    
T = Trace of Precipitation, MM = Missing Value Source: NWS Daily Summary

Daily Weather History Graph

Daily Weather History Graph

Search for Another Location

Airport or City:

Trip Planner

Search our weather history database for the weather conditions in past years. The results will help you decide how hot, cold, wet, or windy it might be!

Date:

Astronomy

Dec. 10, 2011 Rise Set
Actual Time 7:40 AM CST 4:59 PM CST
Civil Twilight 7:09 AM CST 5:30 PM CST
Nautical Twilight 6:35 AM CST 6:04 PM CST
Astronomical Twilight 6:01 AM CST 6:37 PM CST
Moon 5:14 PM CST (12/10) 7:41 AM CST (12/10)
Length of Visible Light 10h 20m
Length of Day
9h 18m
Full, 100% of the Moon is Illuminated
Dec 10
Full
Dec 17
Last Quarter
Dec 24
New
Jan 1
First Quarter
Jan 9
Full

Hourly Weather History & Observations

Time (CST) Temp. Windchill Dew Point Humidity Pressure Visibility Wind Dir Wind Speed Gust Speed Precip Events Conditions
12:10 AM 3.2 °F - -0.4 °F 85% 30.50 in 0.5 mi Calm Calm - N/A Fog Light Freezing Fog
12:45 AM 5.0 °F - 3.2 °F 92% 30.49 in 0.2 mi Calm Calm - N/A Fog Light Freezing Fog
12:50 AM 5.0 °F - 3.2 °F 92% 30.49 in 0.2 mi Calm Calm - N/A Fog Light Freezing Fog
12:54 AM 5.0 °F - 3.9 °F 95% 30.56 in 0.2 mi Calm Calm - N/A Fog Light Freezing Fog
1:22 AM 5.0 °F -2.1 °F 3.2 °F 92% 30.48 in 0.2 mi SW 3.5 mph - N/A Fog Light Freezing Fog
1:54 AM 3.9 °F -3.4 °F 1.9 °F 91% 30.54 in 0.2 mi SSW 3.5 mph - N/A Fog Light Freezing Fog
2:33 AM 3.2 °F - 1.4 °F 92% 30.47 in 0.5 mi Calm Calm - N/A Fog Light Freezing Fog
2:39 AM 3.2 °F - 1.4 °F 92% 30.47 in 2.0 mi Calm Calm - N/A   Overcast
2:47 AM 1.4 °F - -0.4 °F 92% 30.47 in 5.0 mi Calm Calm - N/A   Overcast
2:54 AM 1.9 °F - -0.9 °F 88% 30.54 in 6.0 mi Calm Calm - N/A   Overcast
3:19 AM 1.4 °F - -0.4 °F 92% 30.46 in 6.0 mi Calm Calm - N/A   Mostly Cloudy
3:54 AM 3.9 °F - 1.9 °F 91% 30.52 in 6.0 mi Calm Calm - N/A   Overcast
4:54 AM 7.0 °F -1.7 °F 3.9 °F 87% 30.49 in 7.0 mi SSE 4.6 mph - N/A   Mostly Cloudy
5:54 AM 7.0 °F - 3.9 °F 87% 30.48 in 6.0 mi Calm Calm - N/A   Clear
6:54 AM 6.1 °F - 1.9 °F 83% 30.48 in 7.0 mi Calm Calm - N/A   Clear
7:54 AM 3.9 °F -3.4 °F 1.9 °F 91% 30.48 in 4.0 mi South 3.5 mph - N/A   Clear
8:54 AM 12.0 °F - 9.0 °F 88% 30.48 in 4.0 mi Calm Calm - N/A   Clear
9:54 AM 19.0 °F - 19.0 °F 100% 30.48 in 4.0 mi Calm Calm - N/A   Clear
10:54 AM 23.0 °F 13.1 °F 19.4 °F 86% 30.40 in 6.0 mi SW 9.2 mph - N/A   Clear
11:54 AM 26.1 °F 16.8 °F 21.0 °F 81% 30.45 in 7.0 mi SW 9.2 mph - N/A   Clear
12:54 PM 28.9 °F 20.4 °F 21.9 °F 75% 30.42 in 7.0 mi SSW 9.2 mph - N/A   Clear
1:54 PM 30.0 °F 24.1 °F 23.0 °F 75% 30.40 in 7.0 mi SSW 5.8 mph - N/A   Clear
2:54 PM 30.9 °F 25.2 °F 23.0 °F 72% 30.39 in 8.0 mi SSW 5.8 mph - N/A   Clear
3:54 PM 32.0 °F 25.6 °F 24.1 °F 73% 30.38 in 7.0 mi SSW 6.9 mph - N/A   Clear
4:54 PM 30.0 °F - 23.0 °F 75% 30.38 in 7.0 mi Calm Calm - N/A   Clear
5:54 PM 30.0 °F - 24.1 °F 79% 30.37 in 8.0 mi Calm Calm - N/A   Clear
6:54 PM 23.0 °F 17.0 °F 19.9 °F 88% 30.37 in 7.0 mi SSE 4.6 mph - N/A   Clear
7:54 PM 19.9 °F 14.9 °F 19.0 °F 96% 30.37 in 5.0 mi SE 3.5 mph - N/A   Clear
8:54 PM 30.0 °F 25.2 °F 25.0 °F 82% 30.35 in 9.0 mi Variable 4.6 mph - N/A   Clear
9:54 PM 30.0 °F 24.1 °F 26.1 °F 85% 30.34 in 8.0 mi South 5.8 mph - N/A   Clear
10:54 PM 28.0 °F 20.0 °F 24.1 °F 85% 30.34 in 7.0 mi South 8.1 mph - N/A   Clear
11:54 PM 25.0 °F 16.3 °F 23.0 °F 92% 30.33 in 6.0 mi South 8.1 mph - N/A   Clear